Regional Weather Roundup
Issued by NWS

Home | Current Version | Previous Version | Text Only | Print | Product List | Glossary On
Versions: 1 2 3 4 5 6 7 8 9 10 11 12 13 14 15 16 17 18 19 20 21 22 23 24 25 26 27 28 29 30 31 32 33 34 35 36 37 38 39 40 41 42 43 44 45 46 47 48 49 50
000
ASUS42 KFFC 060603
RWRGA
WEATHER ROUNDUP FOR GEORGIA
NATIONAL WEATHER SERVICE PEACHTREE CITY GA
200 AM EDT MON JUL 06 2015

NOTE: "FAIR" INDICATES FEW OR NO CLOUDS BELOW 12,000 FEET WITH NO
SIGNIFICANT WEATHER AND/OR OBSTRUCTIONS TO VISIBILITY.

* = USE WITH CAUTION. THE STATIONS MARKED WITH AN ASTERISK MAY NOT
REPORT WEATHER SUCH AS PRECIPITATION, FOG, OR THUNDER AND ARE NOT
QUALITY CONTROLLED BY NWS.

THE REMARK "TC" DENOTES TEMPERATURE READING IN DEGREES CELSIUS.

GAZ001>058-060700-
NORTH GEORGIA

CITY           SKY/WX    TMP DP  RH WIND       PRES   REMARKS
ATLANTA        MOCLDY    73  68  84 SW6       30.12S
6HR MIN TEMP:  73; 6HR MAX TEMP:  80;

ATHENS         CLEAR     71  67  87 CALM      30.11S
6HR MIN TEMP:  70; 6HR MAX TEMP:  81;

CHAMBLEE       PTCLDY    72  69  90 SW5       30.12S
6HR MIN TEMP:  71; 6HR MAX TEMP:  80;

PEACHTREE CITY CLEAR     71  69  93 CALM      30.12F
6HR MIN TEMP:  71; 6HR MAX TEMP:  75;

ROME           PTCLDY    69  68  96 CALM      30.09F
6HR MIN TEMP:  69; 6HR MAX TEMP:  80;

WEST ATLANTA   CLOUDY    73  69  87 SW7       30.11F
6HR MIN TEMP:  73; 6HR MAX TEMP:  81;

GAINESVILLE    CLEAR     69  67  93 SW3       30.14F
6HR MIN TEMP:  69; 6HR MAX TEMP:  79;

CARTERSVILLE   PTCLDY    68  66  93 CALM      30.11F
6HR MIN TEMP:  68; 6HR MAX TEMP:  79;



CITY           SKY/WX    TMP DP  RH WIND       PRES   REMARKS
DALTON*        PTCLDY    68  68 100 CALM      30.11F
BLAIRSVILLE*   HAZE      67  60  77 CALM      30.16S VSB<1/4
$$

GAZ059>098-102>109-060700-
CENTRAL GEORGIA

CITY           SKY/WX    TMP DP  RH WIND       PRES   REMARKS
AUGUSTA-BUSH   CLEAR     72  71  97 S5        30.10R
6HR MIN TEMP:  71; 6HR MAX TEMP:  78;

AUGUSTA-DANIEL CLEAR     75  70  84 SW6       30.11S
6HR MIN TEMP:  74; 6HR MAX TEMP:  81;

COLUMBUS       CLOUDY    73  70  90 S3        30.11F
6HR MIN TEMP:  73; 6HR MAX TEMP:  79;

MACON          MOCLDY    72  70  93 SW6       30.12F
6HR MIN TEMP:  72; 6HR MAX TEMP:  82;



CITY           SKY/WX    TMP DP  RH WIND       PRES   REMARKS
LAGRANGE*      PTCLDY    74  74 100 CALM      30.12S
SYLVANIA*      PTCLDY    72  72 100 CALM      30.14R
MILLEDGEVILLE* CLEAR     72  70  94 CALM      30.11F
$$

GAZ099>101-110>166-060700-
SOUTH GEORGIA

CITY           SKY/WX    TMP DP  RH WIND       PRES   REMARKS
SAVANNAH       MOCLDY    70  68  93 S6        30.14S
6HR MIN TEMP:  70; 6HR MAX TEMP:  73;

VALDOSTA       CLEAR     71  70  96 CALM      30.15S
6HR MIN TEMP:  69; 6HR MAX TEMP:  76;

ALMA           CLOUDY    72  71  97 S6        30.14S
6HR MIN TEMP:  72; 6HR MAX TEMP:  75;

ST SIMONS      MOCLDY    72  70  93 SW5       30.15S
6HR MIN TEMP:  72; 6HR MAX TEMP:  74;

ALBANY         PTCLDY    71  69  93 SW3       30.15F
BRUNSWICK      PTCLDY    70  70 100 CALM      30.16S


CITY           SKY/WX    TMP DP  RH WIND       PRES   REMARKS
BAINBRIDGE*    PTCLDY    73  72  94 CALM      30.15S
MOULTRIE*      PTCLDY    72  70  94 CALM      30.16S
VIDALIA*       CLOUDY    72  72 100 SW7       30.14R
WAYCROSS*      CLOUDY    74  74  99 CALM      30.15S
DOUGLAS*       CLOUDY    73  72  94 SW6       30.15F
$$



USA.gov is the U.S. government's official web portal to all federal, state and local government web resources and services.